North Bend, OR

12:13 AM PST on December 03, 2016 (GMT -0800)
North Bend Municipal

Weather History for KOTH - July, 2014

Change the Weather History Date:

Monday, July 14, 2014

  Actual Average Record
Temperature  
Mean Temperature 61 °F 59 °F  
Max Temperature 66 °F 65 °F 74 °F (1925)
Min Temperature 55 °F 53 °F 42 °F (1929)
Degree Days  
Heating Degree Days 4 6  
Month to date heating degree days 59 95  
Since 1 June heating degree days 256 362  
Since 1 July heating degree days 59 95  
Cooling Degree Days 0 0  
Month to date cooling degree days 0 0  
Year to date cooling degree days 12 0  
Since 1 June cooling degree days 0 0  
Growing Degree Days 10 (Base 50)    
Moisture  
Dew Point 58 °F    
Average Humidity 95    
Maximum Humidity 100    
Minimum Humidity 78    
Precipitation  
Precipitation 0.00 in 0.01 in 0.25 in (1964)
Month to date precipitation 0.00 0.29  
Year to date precipitation 22.43 36.41  
Sea Level Pressure  
Sea Level Pressure 30.12 in    
Wind  
Wind Speed 14 mph (North)    
Max Wind Speed 30 mph    
Max Gust Speed 37 mph    
Visibility 8 miles    
Events      
T = Trace of Precipitation, MM = Missing Value Source: NWS Daily Summary

Daily Weather History Graph

Daily Weather History Graph

Search for Another Location

Airport or City:

Trip Planner

Search our weather history database for the weather conditions in past years. The results will help you decide how hot, cold, wet, or windy it might be!

Date:

Astronomy

Jul. 14, 2014 Rise Set
Actual Time 5:49 AM PDT 8:55 PM PDT
Civil Twilight 5:14 AM PDT 9:30 PM PDT
Nautical Twilight 4:30 AM PDT 10:14 PM PDT
Astronomical Twilight 3:37 AM PDT 11:07 PM PDT
Moon 10:22 PM PDT (7/14) 8:45 AM PDT (7/14)
Length of Visible Light 16h 15m
Length of Day
15h 06m
Waning Gibbous, 92% of the Moon is Illuminated
Jul 14
Waning Gibbous
Jul 18
Last Quarter
Jul 26
New
Aug 3
First Quarter
Aug 10
Full

Hourly Weather History & Observations

Time (PDT) Temp. Dew Point Humidity Pressure Visibility Wind Dir Wind Speed Gust Speed Precip Events Conditions
12:15 AM 59.0 °F 59.0 °F 100% 30.18 in 5.0 mi North 3.5 mph - N/A   Overcast
12:35 AM 57.2 °F 57.2 °F 100% 30.18 in 5.0 mi Calm Calm - N/A   Overcast
12:55 AM 57.2 °F 57.2 °F 100% 30.18 in 8.0 mi Calm Calm - N/A   Overcast
1:15 AM 57.2 °F 57.2 °F 100% 30.17 in 8.0 mi NW 3.5 mph - N/A   Overcast
1:35 AM 57.2 °F 57.2 °F 100% 30.17 in 4.0 mi WNW 3.5 mph - N/A   Overcast
1:55 AM 57.2 °F 57.2 °F 100% 30.17 in 5.0 mi Calm Calm - N/A   Overcast
2:15 AM 57.2 °F 57.2 °F 100% 30.17 in 4.0 mi North 5.8 mph - N/A   Overcast
2:35 AM 57.2 °F 57.2 °F 100% 30.16 in 10.0 mi North 6.9 mph - N/A   Overcast
2:55 AM 57.2 °F 57.2 °F 100% 30.17 in 9.0 mi North 5.8 mph - N/A   Overcast
3:15 AM 57.2 °F 57.2 °F 100% 30.16 in 8.0 mi North 6.9 mph - N/A   Overcast
3:35 AM 57.2 °F 57.2 °F 100% 30.16 in 9.0 mi North 6.9 mph - N/A   Overcast
3:55 AM 57.2 °F 57.2 °F 100% 30.15 in 3.0 mi North 6.9 mph - N/A   Overcast
4:15 AM 57.2 °F 57.2 °F 100% 30.15 in 4.0 mi North 5.8 mph - N/A   Overcast
4:35 AM 57.2 °F 57.2 °F 100% 30.15 in 5.0 mi North 4.6 mph - N/A   Overcast
4:55 AM 57.2 °F 57.2 °F 100% 30.14 in 4.0 mi North 4.6 mph - N/A   Overcast
5:15 AM 57.2 °F 57.2 °F 100% 30.14 in 9.0 mi North 3.5 mph - N/A   Overcast
5:35 AM 57.2 °F 57.2 °F 100% 30.14 in 9.0 mi North 4.6 mph - N/A   Overcast
5:55 AM 57.2 °F 57.2 °F 100% 30.14 in 10.0 mi NNW 4.6 mph - N/A   Overcast
6:15 AM 57.2 °F 57.2 °F 100% 30.14 in 10.0 mi North 5.8 mph - N/A   Overcast
6:55 AM 57.2 °F 57.2 °F 100% 30.14 in 6.0 mi North 8.1 mph - N/A   Overcast
7:15 AM 59.0 °F 59.0 °F 100% 30.14 in 10.0 mi North 9.2 mph - N/A   Overcast
7:35 AM 57.2 °F 57.2 °F 100% 30.14 in 10.0 mi North 10.4 mph - N/A   Overcast
7:55 AM 59.0 °F 57.2 °F 94% 30.14 in 10.0 mi North 12.7 mph - N/A   Overcast
8:15 AM 59.0 °F 59.0 °F 100% 30.14 in 10.0 mi North 10.4 mph - N/A   Overcast
8:35 AM 60.8 °F 60.8 °F 100% 30.14 in 10.0 mi North 9.2 mph - N/A   Overcast
8:55 AM 60.8 °F 59.0 °F 94% 30.14 in 10.0 mi North 9.2 mph - N/A   Overcast
9:15 AM 60.8 °F 60.8 °F 100% 30.14 in 10.0 mi North 9.2 mph - N/A   Overcast
9:35 AM 62.6 °F 60.8 °F 94% 30.13 in 10.0 mi North 11.5 mph - N/A   Overcast
9:55 AM 62.6 °F 60.8 °F 94% 30.13 in 10.0 mi North 12.7 mph - N/A   Overcast
10:15 AM 62.6 °F 59.0 °F 88% 30.13 in 10.0 mi North 12.7 mph - N/A   Overcast
10:35 AM 62.6 °F 59.0 °F 88% 30.13 in 10.0 mi North 8.1 mph - N/A   Overcast
10:55 AM 62.6 °F 59.0 °F 88% 30.13 in 10.0 mi NNW 9.2 mph - N/A   Overcast
11:15 AM 64.4 °F 59.0 °F 83% 30.13 in 10.0 mi NNW 8.1 mph - N/A   Overcast
11:35 AM 64.4 °F 60.8 °F 88% 30.13 in 10.0 mi North 8.1 mph - N/A   Overcast
11:55 AM 66.2 °F 60.8 °F 83% 30.13 in 10.0 mi NNW 9.2 mph - N/A   Overcast
12:15 PM 66.2 °F 60.8 °F 83% 30.13 in 10.0 mi North 13.8 mph - N/A   Overcast
12:35 PM 66.2 °F 59.0 °F 78% 30.13 in 10.0 mi North 17.3 mph 21.9 mph N/A   Overcast
1:15 PM 64.4 °F 59.0 °F 83% 30.12 in 10.0 mi North 23.0 mph 28.8 mph N/A   Partly Cloudy
1:55 PM 64.4 °F 59.0 °F 83% 30.11 in 10.0 mi North 26.5 mph 34.5 mph N/A   Partly Cloudy
2:35 PM 62.6 °F 57.2 °F 82% 30.11 in 10.0 mi North 26.5 mph 34.5 mph N/A   Partly Cloudy
2:55 PM 62.6 °F 57.2 °F 82% 30.10 in 10.0 mi North 29.9 mph 36.8 mph N/A   Partly Cloudy
3:35 PM 62.6 °F 59.0 °F 88% 30.10 in 10.0 mi North 26.5 mph 36.8 mph N/A   Scattered Clouds
3:55 PM 62.6 °F 59.0 °F 88% 30.10 in 10.0 mi North 28.8 mph 36.8 mph N/A   Scattered Clouds
4:15 PM 64.4 °F 59.0 °F 83% 30.10 in 10.0 mi North 25.3 mph 29.9 mph N/A   Scattered Clouds
4:35 PM 64.4 °F 59.0 °F 83% 30.10 in 10.0 mi North 24.2 mph 31.1 mph N/A   Scattered Clouds
4:55 PM 62.6 °F 59.0 °F 88% 30.10 in 10.0 mi North 21.9 mph 28.8 mph N/A   Mostly Cloudy
5:15 PM 62.6 °F 57.2 °F 82% 30.10 in 10.0 mi North 25.3 mph 29.9 mph N/A   Scattered Clouds
5:35 PM 62.6 °F 57.2 °F 82% 30.09 in 10.0 mi North 24.2 mph 31.1 mph N/A   Scattered Clouds
5:55 PM 60.8 °F 57.2 °F 88% 30.09 in 10.0 mi North 27.6 mph 35.7 mph N/A   Mostly Cloudy
6:15 PM 60.8 °F 57.2 °F 88% 30.09 in 10.0 mi North 28.8 mph 36.8 mph N/A   Mostly Cloudy
6:35 PM 60.8 °F 59.0 °F 94% 30.08 in 10.0 mi North 28.8 mph 34.5 mph N/A   Mostly Cloudy
6:55 PM 60.8 °F 59.0 °F 94% 30.08 in 10.0 mi North 25.3 mph 33.4 mph N/A   Overcast
7:15 PM 60.8 °F 59.0 °F 94% 30.09 in 10.0 mi North 23.0 mph 28.8 mph N/A   Overcast
7:35 PM 59.0 °F 59.0 °F 100% 30.09 in 10.0 mi North 21.9 mph 31.1 mph N/A   Overcast
7:55 PM 59.0 °F 59.0 °F 100% 30.09 in 10.0 mi North 18.4 mph 26.5 mph N/A   Overcast
8:15 PM 57.2 °F 57.2 °F 100% 30.09 in 10.0 mi North 18.4 mph 26.5 mph N/A   Overcast
8:35 PM 57.2 °F 57.2 °F 100% 30.09 in 5.0 mi North 19.6 mph 24.2 mph N/A   Overcast
8:55 PM 57.2 °F 57.2 °F 100% 30.09 in 5.0 mi North 19.6 mph 26.5 mph N/A   Overcast
9:15 PM 57.2 °F 57.2 °F 100% 30.09 in 5.0 mi North 16.1 mph 23.0 mph N/A   Overcast
9:35 PM 57.2 °F 57.2 °F 100% 30.09 in 5.0 mi North 19.6 mph 23.0 mph N/A   Overcast
9:55 PM 55.4 °F 55.4 °F 100% 30.10 in 3.0 mi North 16.1 mph - N/A   Overcast
10:15 PM 57.2 °F 57.2 °F 100% 30.10 in 8.0 mi North 12.7 mph - N/A   Overcast
10:35 PM 55.4 °F 55.4 °F 100% 30.11 in 8.0 mi North 10.4 mph - N/A   Overcast
10:55 PM 55.4 °F 55.4 °F 100% 30.11 in 6.0 mi North 10.4 mph - N/A   Overcast
11:15 PM 55.4 °F 55.4 °F 100% 30.11 in 7.0 mi North 11.5 mph - N/A   Overcast
11:35 PM 55.4 °F 55.4 °F 100% 30.11 in 6.0 mi North 9.2 mph - N/A   Overcast
11:55 PM 55.4 °F 55.4 °F 100% 30.10 in 3.0 mi North 6.9 mph - N/A   Overcast